Location: Río Guadyerbas
(40.0831°N, 5.1912°W)
Time: 04:09:16
(UTC+00:00)

Daily predictions for brighter satellites

Satellite Brightness Start Highest point End
(mag) Time Altitude Azimuth Time Altitude Azimuth Time Altitude Azimuth
USA 59 Rocket 1.4 00:03:31 10° NW 00:06:11 39° NW 00:06:11 39° NW
Cosmos 2360 4.3 00:08:09 10° NNW 00:13:37 73° NE 00:13:37 73° NE
ALOS 2 4.0 00:17:52 33° NW 00:17:52 33° NW 00:20:34 10° NNW
GP-B 4.5 00:12:28 10° NNE 00:15:19 34° NE 00:15:19 34° NE
S3M 4.0 00:12:39 10° N 00:19:04 76° E 00:19:19 75° ESE
Cosmos 2082 Rocket 3.4 00:21:35 30° E 00:21:35 30° E 00:25:39 10° NE
Cosmos 2315 Rocket 4.3 00:16:10 10° N 00:22:19 54° E 00:22:49 53° E
Cosmos 2285 Rocket 3.9 00:24:19 83° ESE 00:24:19 83° ESE 00:30:40 10° NNE
Cosmos 1833 Rocket 2.9 00:25:06 65° NW 00:25:06 65° NW 00:30:29 10° NNE
H-2A R/B 3.1 00:23:47 10° N 00:26:54 44° N 00:26:54 44° N
CZ-2C R/B 3.9 00:28:07 45° E 00:28:30 46° ENE 00:40:10 10° N
Cosmos 1553 Rocket 4.5 00:23:50 10° NNW 00:29:28 46° W 00:29:28 46° W
SL-08 ROCKET BODY 4.3 00:31:33 85° W 00:31:35 85° W 00:37:49 10° N
Cosmos 44 Rocket 3.9 00:39:51 10° NNW 00:44:07 52° NNE 00:44:07 52° NNE
Cosmos 1655 Rocket 3.9 00:50:18 77° WSW 00:50:34 78° W 00:56:58 10° N
Cosmos 1607 4.3 00:57:35 51° W 00:58:42 57° NW 01:05:06 10° NNE
Resurs 1-4 Rocket 4.3 00:57:37 10° ENE 01:00:22 14° E 01:01:09 14° E
USA 267 4.3 01:04:33 10° NE 01:10:31 39° NNW 01:15:17 16° W
Cosmos 1707 Rocket 4.3 01:12:36 50° N 01:12:36 50° N 01:15:56 10° N
Meteor 1-23 Rocket 4.3 01:12:17 63° WNW 01:12:17 63° WNW 01:17:43 10° N
Cosmos 2251 Rocket 4.2 01:18:35 44° WNW 01:18:35 44° WNW 01:23:33 10° N
Cosmos 1953 4.2 01:15:44 10° NNE 01:18:40 24° ENE 01:18:40 24° ENE
Cosmos 676 Rocket 4.2 01:19:36 66° E 01:19:36 66° E 01:24:38 10° NNE
Cosmos 2228 Rocket 4.0 01:21:27 43° NNW 01:21:27 43° NNW 01:24:49 10° N
Okean 1-7 4.0 01:21:15 41° ENE 01:21:15 41° ENE 01:24:34 10° NNE
Cosmos 407 Rocket 4.4 01:22:38 37° WNW 01:22:46 37° WNW 01:27:40 10° N
Cosmos 1697 Rocket 3.5 01:17:55 10° NW 01:22:00 37° WNW 01:22:00 37° WNW
Cosmos 1356 Rocket 4.4 01:24:58 43° N 01:24:58 43° N 01:27:48 10° N
Cosmos 1954 Rocket 4.0 01:26:15 84° NNW 01:26:15 84° NNW 01:31:26 10° NNE
Meteor 2-20 4.3 01:20:23 10° NNW 01:26:32 75° W 01:26:56 72° SW
Cosmos 1190 Rocket 4.2 01:28:15 61° WNW 01:28:15 61° WNW 01:33:24 10° NNE
NOSS 3-4 (A) 3.8 01:21:23 10° NW 01:28:31 89° WSW 01:31:47 40° SSE
NOSS 3-4 (C) 3.8 01:21:30 10° NW 01:28:37 89° WSW 01:31:58 39° SSE
Cosmos 468 Rocket 4.2 01:23:21 10° NNW 01:28:37 64° ENE 01:29:07 61° E
Cosmos 1980 Rocket 2.0 01:24:15 10° NNW 01:29:59 82° WSW 01:30:01 82° WSW
Okean 3 4.3 01:32:08 45° N 01:32:08 45° N 01:35:04 10° N
COSMOS 2406 3.1 01:31:08 77° WSW 01:31:26 80° WNW 01:37:14 10° NNE
BREEZE-M R/B 3.9 01:36:42 44° SE 01:36:51 44° SE 01:45:56 10° ENE
Cosmos 2369 3.6 01:32:55 10° NNW 01:38:41 89° ENE 01:39:15 73° SSE
Cosmos 1763 Rocket 3.6 01:34:27 10° NNW 01:39:14 63° WNW 01:39:14 63° WNW
Lacrosse 5 rocket 4.1 01:39:32 10° NNW 01:42:23 18° NNE 01:45:10 10° ENE
Cosmos 1908 Rocket 4.1 01:39:06 10° N 01:43:25 51° E 01:43:27 51° E
USA 234 3.1 01:42:19 46° SSE 01:44:26 73° SW 01:50:59 10° NW
Meteor 1-16 Rocket 4.2 01:40:16 10° N 01:45:59 88° E 01:46:48 67° SSE
Cosmos 1315 Rocket 3.6 01:50:14 48° NE 01:50:14 48° NE 01:53:20 10° NNE
ADEOS II 3.7 01:45:54 10° NE 01:50:13 26° E 01:51:56 22° SE
Helios 1A Rocket 4.2 01:52:27 30° NW 01:52:27 30° NW 01:54:38 10° NNW
Cosmos 1733 Rocket 4.5 01:51:20 10° NNW 01:53:54 27° NW 01:53:54 27° NW
IDEFIX/ARIANE 42P 2.7 01:51:53 10° NNE 01:57:07 63° ESE 01:57:56 55° SE
SL-16 R/B 3.4 01:53:37 10° N 01:58:58 41° ENE 02:04:16 10° SE
Cosmos 540 Rocket 3.6 01:55:59 10° NNW 02:00:43 57° W 02:00:43 57° W
ATLAS CENTAUR R/B 4.2 01:49:41 10° NW 02:01:57 54° WSW 02:05:07 40° SSW
Cosmos 2082 Rocket 3.1 02:03:24 33° W 02:04:37 36° WNW 02:09:52 10° N
Cosmos 1745 Rocket 3.9 02:08:10 53° SSW 02:09:46 84° W 02:16:04 10° N
MSX 3.8 02:06:00 10° NNE 02:11:45 74° ESE 02:13:21 48° S
CZ-2C R/B 3.9 02:06:20 10° NNE 02:11:58 48° E 02:14:11 32° SSE
SL-8 R/B 4.1 02:12:08 10° NW 02:16:52 61° NNE 02:21:36 10° ESE
Cosmos 1408 3.9 02:18:27 29° ENE 02:18:27 29° ENE 02:20:35 10° NNE
MOZ.5/SAFIR/RUBIN 5/SL-8 3.9 02:18:52 55° W 02:18:52 55° W 02:23:24 10° NNW
Cosmos 1703 Rocket 3.8 02:19:41 56° WNW 02:19:41 56° WNW 02:24:00 10° N
H-2A R/B 3.4 02:16:12 10° N 02:20:00 70° NW 02:20:00 70° NW
Cosmos 1242 Rocket 3.8 02:21:11 32° NE 02:21:11 32° NE 02:22:59 10° NNE
Cosmos 2360 Rocket 3.9 02:17:19 10° N 02:22:20 31° ENE 02:27:20 10° ESE
CZ-2D R/B 2.1 02:17:31 10° NNE 02:23:01 80° ESE 02:24:38 47° S
Cosmos 1850 Rocket 3.9 02:22:43 57° SSW 02:23:51 86° WNW 02:29:09 10° NNE
Cosmos 1741 Rocket 3.9 02:27:10 55° SSW 02:28:20 83° WNW 02:33:38 10° NNE
COSMOS 2441 4.4 02:24:19 10° NNE 02:29:06 69° ESE 02:30:24 46° SSE
Timation 1 Rocket 4.3 02:28:59 44° SSW 02:30:58 82° ESE 02:36:57 10° NNE
ALOS 3.6 02:29:25 10° NNE 02:33:36 33° E 02:35:56 21° SE
Nadezhda 1 Rocket 4.2 02:30:23 10° NNW 02:36:37 55° W 02:38:43 39° SW
Cosmos 1455 3.5 02:36:42 10° NNW 02:38:38 25° NW 02:38:38 25° NW
DELTA 2 R/B (1) 3.4 02:37:02 28° W 02:40:07 86° S 02:45:41 10° E
Genesis I 3.0 02:40:28 68° ESE 02:40:28 68° ESE 02:43:58 10° NE
Cosmos 2278 3.6 02:34:46 10° NNW 02:40:28 71° WSW 02:43:23 29° S
Resurs 1-4 Rocket 2.1 02:35:23 10° N 02:40:35 67° WNW 02:42:13 43° SW
Cosmos 1300 Rocket 3.4 02:37:41 10° N 02:42:02 86° W 02:43:06 50° S
FENGYUN 3A 3.7 02:38:08 10° NNE 02:43:32 75° ESE 02:45:58 33° S
Cosmos 968 Rocket 3.3 02:42:48 45° SSW 02:44:23 84° WNW 02:49:32 10° NNE
CZ-2C R/B 2.5 02:48:34 37° S 02:50:32 64° WSW 02:55:41 10° NNW
Cosmos 2333 Rocket 3.2 02:46:18 10° NNW 02:51:50 47° ENE 02:57:21 10° SE
Meteor 2-5 Rocket 4.1 02:48:22 24° S 02:51:59 67° E 02:57:53 10° NNE
Cosmos 1953 4.1 02:51:46 10° NW 02:53:47 19° WNW 02:53:47 19° WNW
Cosmos 841 Rocket 3.9 02:50:27 10° NNW 02:55:23 43° WSW 02:56:39 37° SW
EXPRESS MD2 3.8 02:57:13 32° NW 02:57:58 38° NNW 03:01:55 10° NE
Cosmos 2322 Rocket 2.3 02:53:44 10° NNW 02:59:25 79° ENE 03:05:05 10° SSE
CRYOSAT 2 4.4 02:54:39 10° N 02:59:30 65° W 03:01:28 35° SSW
AQUA 3.7 02:59:43 10° N 03:04:27 77° WNW 03:06:36 32° SSW
SAR-Lupe-1 4.3 03:02:13 10° NNE 03:05:46 66° ESE 03:07:08 34° S
SJ 16-02 1.3 03:05:07 39° SW 03:06:35 68° WNW 03:10:54 10° NNE
SL-4 R/B 3.0 03:05:44 28° S 03:07:12 38° SE 03:11:19 10° ENE
SL-16 R/B 2.5 03:01:17 10° SSE 03:07:33 90° WSW 03:13:51 10° NNW
Cosmos 1892 4.0 03:09:43 14° SSE 03:12:17 33° E 03:15:29 10° NNE
Cosmos 1825 3.8 03:09:44 11° SSE 03:12:28 28° E 03:15:26 10° NNE
Cosmos 1833 4.2 03:10:40 27° SSW 03:13:54 86° WNW 03:19:35 10° NNE
Cosmos 2181 Rocket 4.0 03:11:13 10° N 03:17:36 81° W 03:23:50 10° S
Lacrosse 5 rocket 1.0 03:17:11 10° NW 03:21:12 79° SW 03:25:01 10° SE
Cosmos 1814 Rocket 3.9 03:16:40 10° NNW 03:21:54 76° WSW 03:27:08 10° SSE
ADEOS II 2.8 03:25:05 10° N 03:29:54 38° WNW 03:32:49 21° WSW
ATLAS CENTAUR R/B 3.3 03:31:04 10° SSE 03:33:31 18° ESE 03:35:59 10° ENE
METEOR-M 4.4 03:28:19 10° NNE 03:33:38 66° ESE 03:38:56 10° S
IDEFIX/ARIANE 42P 4.4 03:32:48 10° NNW 03:36:04 17° WNW 03:38:41 12° W
Cosmos 2098 Rocket 4.0 03:33:58 10° NNW 03:39:05 51° W 03:45:02 10° SSW
Cosmos 405 Rocket 2.8 03:36:52 10° N 03:40:27 68° E 03:44:03 10° SSE
OAO 3 Rocket 3.7 03:37:30 18° WSW 03:40:41 41° S 03:45:16 10° ESE
SL-16 R/B 3.1 03:38:07 10° NW 03:42:49 28° WSW 03:46:29 14° SSW
SL-27 R/B 3.9 03:46:38 14° W 03:47:19 15° WNW 03:49:07 10° NNW
Cosmos 2221 Rocket 3.7 03:44:21 14° SSW 03:48:09 65° W 03:52:40 10° N
Cosmos 2333 4.2 03:43:26 10° NNW 03:49:10 77° WSW 03:54:54 10° SSE
NOAA 11 4.3 03:47:09 10° NNE 03:52:41 85° ESE 03:58:11 10° SSW
IRS-1D 4.2 03:47:26 10° NNE 03:52:42 57° E 03:57:52 10° S
RESURS DK-1 2.2 03:50:28 10° NNW 03:54:30 65° WSW 03:58:30 10° SSE
Sich 1 Rocket 3.7 03:52:38 10° NNW 03:57:04 57° W 04:01:24 10° S
Envisat 3.0 03:53:09 10° N 03:58:13 73° WNW 04:03:16 10° SSW
Cosmos 2219 Rocket 2.2 03:52:39 10° NNW 03:58:20 88° WSW 04:04:00 10° SSE
SL-8 R/B 4.4 03:54:53 10° WNW 03:59:06 32° SW 04:03:19 10° SSE
Cosmos 2151 Rocket 3.9 03:56:39 10° NNW 04:00:56 46° W 04:05:10 10° SSW
CZ-2D R/B 4.1 03:59:26 10° NNW 04:02:17 15° WNW 04:05:06 10° W
COSMOS 2428 3.9 03:57:28 10° NNW 04:02:57 48° ENE 04:08:24 10° SE
Tiangong -1.3 04:00:56 16° SW 04:03:04 37° SSE 04:05:57 10° E
Cosmos 2360 Rocket 2.7 04:01:10 10° NW 04:06:21 37° WSW 04:11:29 10° S
Cosmos 1455 Rocket 4.3 04:03:45 10° N 04:07:57 44° E 04:12:08 10° SSE
Cosmos 1025 Rocket 3.1 04:04:09 10° S 04:08:31 89° E 04:12:55 10° N
Cosmos 839 Rocket 4.1 04:02:24 10° NW 04:09:07 57° WSW 04:15:06 10° SSE
CZ-2C R/B 2.3 04:04:49 10° N 04:09:36 81° WNW 04:14:12 10° SSW
ALOS 3.6 04:06:57 10° NNW 04:10:36 24° WNW 04:14:15 10° WSW
Cosmos 158 Rocket 4.3 04:05:23 10° NNW 04:10:48 79° ENE 04:16:08 10° SSE
Okean 2 Rocket 3.7 04:09:59 10° NNW 04:14:01 36° W 04:18:01 10° SSW
ATLAS 2AS CENTAUR R/B 2.7 04:10:02 10° NW 04:16:52 90° SW 04:23:27 10° SSE
Thor Agena Rocket 3.6 04:13:40 10° NNE 04:18:54 85° WNW 04:24:09 10° SSW
CZ-4C R/B 4.0 04:21:54 10° SSE 04:24:46 18° ESE 04:27:58 10° ENE
Cosmos 2227 Rocket 4.5 04:20:57 10° SSE 04:25:16 23° E 04:29:37 10° NE
DELTA 2 R/B (1) 3.8 04:20:59 10° W 04:26:24 53° SSW 04:31:46 10° SE
